Yaogan Weixing 7

operational
NORAD ID: 36110 Int'l Des: 2009-069 Owner: ZZB Country: CN Constellation: yaogan
LEOCIRCULARRETROGRADESSO

Yaogan Weixing 7について

説明を読み込み中...

リアルタイム位置

3D地球を読み込み中...

次回通過

高度履歴

Altitude vs Time

uPlot chart will show altitude changes over time

軌道要素

1 36110U 09069A 26061.11924796 .00000850 00000-0 12493-3 0 9994
2 36110 98.0224 307.5662 0025328 27.3980 332.8560 14.77876962873817
Epoch: Mar 2, 2026 • Age: 25 hours

現在のステータス

高度 668.6 km
速度 7.52 km/s
衛星直下点 -78.22°S, 171.22°E
打ち上げ日 Dec 9, 2009
運用期間 16.2 years
タイプ military

技術仕様

分類 Payload
質量 800.00 kg
乾燥質量 800.00 kg
総質量 800.00 kg
長さ 2.00 m
直径 1.50 m
スパン 4.00 m
形状 Box + 2 Pan
製造者 DFHZ
バスタイプ CAST-2000
フェーズステータス In Orbit
所有者/国 ZZB/CN

大規模コンステレーション

Loading constellations...